FW8482 Weather Reports


time (UTC)temp
C
wind
direction
speed
KPH
gust
KPH
rain 1hr
cm
rain 24hr
cm
rain mn
cm
humidity
%
barometer
mb
20260510230827 21 311 1.6 6.4 0.00 0.03 0.03 44 1019.8
20260510225827 21 46 1.6 4.8 0.00 0.03 0.03 45 1019.6
20260510224828 21 315 0.0 1.6 0.00 0.03 0.03 44 1019.5
20260510223827 22 334 1.6 8.0 0.00 0.03 0.03 44 1019.4
20260510222828 22 3 0.0 1.6 0.00 0.03 0.03 44 1019.6
20260510220842 23 356 3.2 6.4 0.00 0.03 0.03 44 1019.5
20260510215928 23 8 1.6 4.8 0.00 0.03 0.03 45 1019.4
20260510214929 23 270 0.0 0.0 0.00 0.03 0.03 48 1019.2
20260510213928 21 342 0.0 3.2 0.00 0.03 0.03 49 1019.0
20260510211927 22 65 3.2 6.4 0.00 0.03 0.03 47 1018.7
20260510211828 22 90 4.8 6.4 0.00 0.03 0.03 47 1018.8
20260510210845 22 69 8.0 11.3 0.00 0.03 0.03 46 1018.5
20260510204828 23 17 1.6 4.8 0.00 0.03 0.03 46 1018.7
20260510203830 24 4 1.6 8.0 0.00 0.03 0.03 45 1018.7
20260510202827 23 13 1.6 4.8 0.00 0.03 0.03 46 1018.7
20260510201827 23 50 0.0 4.8 0.00 0.03 0.03 50 1018.8
20260510200926 23 106 0.0 4.8 0.00 0.03 0.03 47 1018.7
20260510195927 23 322 0.0 6.4 0.00 0.03 0.03 49 1018.8
20260510194928 21 90 0.0 3.2 0.00 0.03 0.03 50 1018.8
20260510194829 21 79 0.0 4.8 0.00 0.03 0.03 49 1018.9
20260510193926 20 252 1.6 4.8 0.00 0.03 0.03 43 1018.8
20260510192927 21 260 1.6 6.4 0.00 0.03 0.03 47 1019.0
20260510191928 21 259 3.2 4.8 0.00 0.03 0.03 52 1018.9
20260510190944 20 68 1.6 6.4 0.00 0.03 0.03 49 1018.8
20260510190043 21 253 4.8 8.0 0.00 0.03 0.03 49 1019.0
20260510185028 21 287 1.6 3.2 0.00 0.03 0.03 54 1018.9
20260510184028 21 12 0.0 0.0 0.00 0.03 0.03 53 1018.8
20260510182027 21 304 0.0 3.2 0.00 0.03 0.03 51 1018.8
20260510181028 20 62 0.0 1.6 0.00 0.03 0.03 52 1018.8
20260510180028 20 287 0.0 3.2 0.00 0.03 0.03 53 1019.0
20260510175029 20 62 3.2 4.8 0.00 0.03 0.03 53 1018.9
20260510174027 20 42 1.6 4.8 0.00 0.05 0.03 52 1018.5
20260510173043 20 64 3.2 4.8 0.00 0.05 0.03 53 1018.6
20260510172927 20 255 1.6 6.4 0.00 0.05 0.03 52 1018.7
20260510171928 20 284 1.6 6.4 0.00 0.05 0.03 52 1018.6
20260510165928 20 262 3.2 6.4 0.00 0.05 0.03 52 1018.5
20260510164026 20 24 0.0 4.8 0.00 0.05 0.03 54 1018.7
20260510163926 20 54 3.2 8.0 0.00 0.05 0.03 55 1018.8
20260510162927 20 336 3.2 12.9 0.00 0.05 0.03 52 1018.7
20260510162026 19 318 0.0 0.0 0.00 0.05 0.03 53 1018.8
20260510161027 19 357 3.2 11.3 0.00 0.05 0.03 52 1018.8
20260510160028 19 351 0.0 4.8 0.00 0.05 0.03 53 1018.7
20260510155028 19 196 1.6 6.4 0.00 0.05 0.03 52 1018.6
20260510154126 19 52 9.7 16.1 0.00 0.05 0.03 57 1018.6
20260510153126 18 34 4.8 11.3 0.00 0.05 0.03 62 1018.6
20260510153026 18 315 1.6 4.8 0.00 0.05 0.03 61 1018.6
20260510152027 17 62 8.0 11.3 0.00 0.05 0.03 61 1018.5
20260510151125 16 71 8.0 9.7 0.00 0.05 0.03 58 1018.3
20260510145127 16 52 4.8 11.3 0.00 0.05 0.03 59 1018.2
20260510143226 16 359 1.6 3.2 0.00 0.05 0.03 62 1017.7
20260510141227 15 52 6.4 9.7 0.00 0.05 0.03 65 1017.5
20260510140325 14 52 6.4 11.3 0.00 0.05 0.03 65 1017.4
20260510135325 14 46 4.8 12.9 0.00 0.05 0.03 70 1017.5
20260510134326 13 43 4.8 11.3 0.00 0.05 0.03 72 1017.3
20260510133326 13 13 0.0 4.8 0.00 0.05 0.03 73 1017.4
20260510132342 13 52 6.4 9.7 0.00 0.05 0.03 75 1017.2
20260510131328 13 44 1.6 4.8 0.00 0.05 0.03 80 1016.9
20260510130426 12 48 6.4 9.7 0.00 0.05 0.03 85 1017.0
20260510125427 12 360 0.0 0.0 0.03 0.05 0.03 85 1016.8
20260510124427 12 67 0.0 1.6 0.03 0.08 0.03 88 1016.9
20260510123429 12 360 0.0 0.0 0.03 0.10 0.03 87 1016.7
20260510122426 11 45 0.0 0.0 0.03 0.13 0.03 83 1016.6
20260510121427 11 45 0.0 0.0 0.03 0.13 0.03 82 1016.4
20260510120427 11 45 0.0 0.0 0.03 0.13 0.03 81 1016.4
20260510113626 12 360 0.0 0.0 0.00 0.10 0.00 76 1015.7
20260510112627 12 360 0.0 0.0 0.00 0.13 0.00 75 1015.7
20260510111627 12 360 0.0 0.0 0.00 0.13 0.00 76 1015.4
20260510110626 12 315 0.0 0.0 0.00 0.13 0.00 76 1015.4
20260510104627 12 337 0.0 0.0 0.00 0.13 0.00 79 1015.1
20260510104528 12 337 0.0 0.0 0.00 0.13 0.00 80 1015.2
20260510103526 12 360 0.0 0.0 0.00 0.15 0.00 83 1014.8
20260510102526 11 337 0.0 0.0 0.00 0.15 0.00 83 1014.6
20260510101525 11 337 0.0 0.0 0.00 0.18 0.00 86 1014.3
20260510100526 11 337 0.0 0.0 0.00 0.20 0.00 87 1014.2
20260510095526 11 337 0.0 0.0 0.00 0.20 0.00 89 1013.9
20260510094527 11 337 0.0 0.0 0.00 0.23 0.00 90 1013.9
20260510093625 11 337 0.0 0.0 0.00 0.23 0.00 91 1013.7
20260510092626 11 247 0.0 0.0 0.00 0.25 0.00 88 1013.7
20260510091626 11 247 0.0 0.0 0.00 0.25 0.00 88 1013.5
20260510085627 12 247 0.0 0.0 0.00 0.30 0.00 87 1013.1
20260510083627 13 270 3.2 3.2 0.00 0.33 0.00 86 1012.9
20260510082725 13 247 0.0 0.0 0.00 0.36 0.00 85 1012.6
20260510081806 13 250 3.2 4.8 0.00 0.36 0.00 84 1012.6
20260510080807 13 238 4.8 6.4 0.00 0.36 0.00 83 1012.4
20260510075824 13 225 3.2 4.8 0.00 0.38 0.00 79 1012.3
20260510073808 15 247 3.2 6.4 0.00 0.41 0.00 79 1012.0
20260510072806 14 258 3.2 8.0 0.00 0.43 0.00 81 1012.1
20260510071808 14 315 0.0 0.0 0.00 0.43 0.00 81 1011.8
20260510070807 15 299 0.0 3.2 0.00 0.46 0.00 78 1012.0
20260510065905 15 255 9.7 17.7 0.00 0.48 0.00 77 1012.3
20260510064006 15 249 4.8 8.0 0.00 0.51 0.00 76 1012.3
20260510063022 15 235 3.2 6.4 0.00 0.53 0.00 76 1012.3
20260510062105 16 244 3.2 6.4 0.00 0.53 0.00 74 1012.5
20260510061108 16 262 3.2 4.8 0.00 0.53 0.00 73 1012.2
20260510060107 16 252 3.2 4.8 0.00 0.53 0.00 72 1012.6
20260510055106 16 259 6.4 9.7 0.00 0.53 0.00 72 1012.5
20260510054107 16 254 6.4 11.3 0.00 0.53 0.00 75 1012.5
20260510052106 15 273 4.8 11.3 0.00 0.53 0.00 78 1012.4
20260510050305 15 225 4.8 6.4 0.00 0.53 0.00 76 1011.9
20260510045307 15 216 4.8 4.8 0.00 0.53 0.00 75 1011.9
20260510044307 15 217 4.8 8.0 0.00 0.56 0.00 74 1011.9
20260510043323 15 225 6.4 8.0 0.00 0.56 0.00 75 1011.9
20260510042307 15 225 6.4 9.7 0.00 0.56 0.00 74 1011.6
20260510041407 15 226 6.4 8.0 0.00 0.56 0.00 76 1011.6
20260510040407 15 224 8.0 9.7 0.00 0.56 0.00 77 1011.6
20260510034502 15 225 1.6 3.2 0.00 0.56 0.56 73 1011.6
20260510033459 16 222 6.4 8.0 0.00 0.56 0.56 72 1011.5
20260510032501 16 224 4.8 8.0 0.00 0.56 0.56 70 1011.4
20260510032401 16 229 6.4 8.0 0.00 0.56 0.56 70 1011.4
20260510031401 16 223 6.4 8.0 0.00 0.56 0.56 70 1011.4
20260510031301 16 223 4.8 8.0 0.00 0.56 0.56 70 1011.4
20260510030400 16 225 8.0 9.7 0.00 0.56 0.56 70 1011.2
20260510025402 16 231 4.8 8.0 0.00 0.56 0.56 72 1011.4
20260510023400 16 252 1.6 3.2 0.00 0.56 0.56 70 1011.2
20260510023316 16 232 3.2 4.8 0.00 0.56 0.56 69 1011.1
20260510022306 16 239 3.2 4.8 0.00 0.56 0.56 69 1011.0
20260510021302 16 251 3.2 4.8 0.00 0.56 0.56 68 1010.9
20260510015400 16 207 3.2 4.8 0.00 0.56 0.56 67 1010.7
20260510013500 17 231 1.6 3.2 0.00 0.56 0.56 64 1010.5
20260510012501 17 228 6.4 9.7 0.00 0.56 0.56 65 1010.2
20260510012402 17 225 6.4 9.7 0.00 0.56 0.56 65 1010.2
20260510010401 17 231 4.8 6.4 0.00 0.56 0.56 64 1009.9
20260510005359 17 222 1.6 4.8 0.00 0.56 0.56 62 1010.0
20260510004401 18 225 3.2 4.8 0.00 0.56 0.56 61 1009.9
20260510001500 19 227 4.8 6.4 0.00 0.56 0.56 57 1009.4
20260510001402 19 222 6.4 8.0 0.00 0.56 0.56 58 1009.5
20260510000403 20 225 6.4 9.7 0.00 0.56 0.56 56 1009.4
20260509235401 20 234 6.4 11.3 0.00 0.56 0.56 56 1009.3
20260509233402 21 244 8.0 9.7 0.00 0.56 0.56 52 1009.2
20260509232401 21 218 14.5 19.3 0.00 0.56 0.56 53 1009.0